FW3073 Weather Reports


Display with metric or nautical units.
time (UTC)temp
F
wind
direction
speed
MPH
gust
MPH
rain 1hr
in
rain 24hr
in
rain mn
in
humidity
%
barometer
mb
20260510013004 50 187 2.0 6.0 0.00 0.00 0.00 57 1016.5
20260510012004 50 177 3.0 8.0 0.00 0.00 0.00 56 1016.9
20260510011003 51 180 3.0 8.0 0.00 0.00 0.00 53 1016.5
20260510010003 51 179 1.0 6.0 0.00 0.00 0.00 47 1016.5
20260510005003 52 182 1.0 4.0 0.00 0.00 0.00 44 1016.2
20260510004003 52 186 2.0 8.0 0.00 0.00 0.00 42 1015.8
20260510003004 52 210 1.0 7.0 0.00 0.00 0.00 41 1016.2
20260510002003 52 193 2.0 9.0 0.00 0.00 0.00 38 1015.8
20260510001004 51 182 2.0 6.0 0.00 0.00 0.00 38 1015.8
20260510000004 50 175 0.0 2.0 0.00 0.00 0.00 42 1015.5
20260509235003 50 191 0.0 1.0 0.00 0.00 0.00 42 1015.5
20260509234003 51 201 0.0 2.0 0.00 0.00 0.00 43 1015.5
20260509233004 51 216 1.0 2.0 0.00 0.00 0.00 39 1015.2
20260509232004 52 215 1.0 4.0 0.00 0.00 0.00 38 1015.5
20260509231004 52 198 1.0 4.0 0.00 0.01 0.00 38 1015.5
20260509230004 53 200 1.0 4.0 0.00 0.02 0.00 36 1015.5
20260509225004 53 188 2.0 7.0 0.00 0.04 0.00 36 1015.2
20260509224004 54 196 2.0 7.0 0.00 0.04 0.00 33 1015.2
20260509223004 54 204 2.0 10.0 0.00 0.04 0.00 32 1014.8
20260509222003 54 188 2.0 7.0 0.00 0.04 0.00 31 1014.8
20260509221003 55 192 1.0 7.0 0.00 0.04 0.00 34 1014.8
20260509220004 55 184 2.0 7.0 0.00 0.04 0.00 32 1014.5
20260509215003 56 169 1.0 4.0 0.00 0.04 0.00 33 1014.5
20260509214003 56 175 2.0 4.0 0.00 0.04 0.00 35 1014.5
20260509213003 57 199 2.0 4.0 0.00 0.04 0.00 34 1014.5
20260509212004 58 184 2.0 4.0 0.00 0.04 0.00 33 1014.5
20260509211003 58 185 2.0 10.0 0.00 0.04 0.00 35 1014.1
20260509210004 58 209 2.0 7.0 0.00 0.04 0.00 37 1014.1
20260509205003 58 195 2.0 4.0 0.00 0.04 0.00 36 1013.8
20260509204003 58 200 1.0 4.0 0.00 0.04 0.00 36 1013.8
20260509203004 59 209 2.0 6.0 0.00 0.04 0.00 37 1013.8
20260509202003 59 183 1.0 4.0 0.00 0.04 0.00 37 1013.8
20260509201003 59 190 1.0 3.0 0.00 0.04 0.00 39 1013.5
20260509200004 59 163 1.0 4.0 0.00 0.04 0.00 40 1013.5
20260509195003 58 160 1.0 6.0 0.00 0.04 0.00 41 1013.5
20260509194003 56 167 1.0 6.0 0.00 0.04 0.00 44 1013.8
20260509193003 56 196 2.0 6.0 0.00 0.04 0.00 43 1013.5
20260509192003 58 196 2.0 8.0 0.00 0.04 0.00 41 1013.8
20260509191003 58 176 1.0 4.0 0.00 0.04 0.00 42 1013.5
20260509190004 57 191 1.0 3.0 0.00 0.04 0.00 40 1013.5
20260509185003 56 249 0.0 2.0 0.00 0.04 0.00 42 1013.8
20260509184003 56 234 1.0 3.0 0.00 0.04 0.00 46 1013.5
20260509183003 55 218 1.0 6.0 0.00 0.04 0.00 44 1013.8
20260509182003 55 185 1.0 3.0 0.00 0.04 0.00 44 1013.8
20260509181004 56 217 1.0 2.0 0.00 0.04 0.00 41 1013.5
20260509180004 57 198 1.0 3.0 0.00 0.04 0.00 42 1013.5
20260509175003 58 180 2.0 4.0 0.00 0.04 0.00 44 1013.5
20260509174003 56 218 1.0 3.0 0.00 0.04 0.00 45 1013.5
20260509173003 56 259 1.0 6.0 0.00 0.04 0.00 42 1013.5
20260509172004 57 243 1.0 3.0 0.00 0.04 0.00 40 1013.1
20260509171004 57 211 1.0 3.0 0.00 0.04 0.00 40 1013.1
20260509170003 57 274 2.0 4.0 0.00 0.04 0.00 41 1013.5
20260509165004 56 272 1.0 4.0 0.00 0.04 0.00 41 1013.1
20260509164003 57 268 2.0 7.0 0.00 0.04 0.00 41 1013.1
20260509163004 57 303 2.0 7.0 0.00 0.04 0.00 40 1013.1
20260509162003 58 228 3.0 9.0 0.00 0.04 0.00 36 1013.1
20260509161003 58 243 2.0 9.0 0.00 0.04 0.00 42 1013.5
20260509160004 55 173 2.0 4.0 0.00 0.04 0.00 57 1013.5
20260509155003 54 168 1.0 4.0 0.00 0.04 0.00 57 1013.1
20260509154004 55 149 1.0 3.0 0.00 0.04 0.00 54 1013.5
20260509153003 56 156 1.0 6.0 0.00 0.04 0.00 55 1013.1
20260509152003 54 171 1.0 6.0 0.00 0.04 0.00 65 1013.1
20260509151003 52 157 2.0 4.0 0.00 0.04 0.00 63 1013.1
20260509150004 53 159 1.0 4.0 0.00 0.04 0.00 62 1013.5
20260509145003 54 151 2.0 6.0 0.00 0.04 0.00 63 1013.1
20260509144003 54 193 1.0 3.0 0.00 0.04 0.00 50 1013.1
20260509143003 54 225 1.0 2.0 0.00 0.04 0.00 44 1013.1
20260509142003 56 241 1.0 8.0 0.00 0.04 0.00 45 1013.1
20260509141003 58 272 2.0 7.0 0.00 0.04 0.00 46 1012.8
20260509140004 58 211 2.0 6.0 0.00 0.04 0.00 48 1012.4
20260509135003 57 258 2.0 8.0 0.00 0.04 0.00 46 1012.8
20260509134003 56 255 2.0 4.0 0.00 0.04 0.00 47 1012.4
20260509133004 55 294 2.0 6.0 0.00 0.04 0.00 55 1012.4
20260509132003 55 278 2.0 6.0 0.00 0.04 0.00 53 1012.4
20260509131003 54 274 2.0 6.0 0.00 0.04 0.00 54 1012.4
20260509130004 54 178 1.0 3.0 0.00 0.04 0.00 58 1012.4
20260509125003 53 257 1.0 3.0 0.00 0.04 0.00 56 1012.4
20260509124003 53 169 1.0 3.0 0.00 0.04 0.00 62 1012.4
20260509123003 51 277 2.0 4.0 0.00 0.04 0.00 66 1012.1
20260509122003 50 300 2.0 4.0 0.00 0.04 0.00 65 1012.1
20260509121003 49 298 2.0 4.0 0.00 0.04 0.00 69 1012.4
20260509120004 48 311 2.0 4.0 0.00 0.04 0.00 73 1012.4
20260509115003 48 282 1.0 3.0 0.00 0.04 0.00 73 1012.1
20260509114003 47 277 3.0 8.0 0.00 0.04 0.00 74 1012.1
20260509113003 46 278 3.0 7.0 0.00 0.04 0.00 75 1012.1
20260509112003 46 264 2.0 6.0 0.00 0.04 0.00 76 1012.1
20260509111003 46 275 2.0 7.0 0.00 0.04 0.00 78 1012.1
20260509110003 45 274 2.0 6.0 0.00 0.04 0.00 80 1012.1
20260509105003 44 276 2.0 4.0 0.00 0.04 0.00 80 1011.8
20260509104003 44 253 1.0 4.0 0.00 0.04 0.00 80 1011.4
20260509103003 43 256 1.0 6.0 0.00 0.04 0.00 81 1011.4
20260509102003 42 265 1.0 4.0 0.00 0.04 0.00 83 1011.4
20260509101003 41 255 1.0 6.0 0.00 0.04 0.00 86 1011.1
20260509100004 40 229 1.0 4.0 0.00 0.04 0.00 87 1010.7
20260509095003 40 268 1.0 4.0 0.00 0.04 0.00 88 1010.4
20260509094003 38 244 0.0 2.0 0.00 0.04 0.00 91 1010.4
20260509093003 38 257 0.0 2.0 0.00 0.04 0.00 92 1010.4
20260509092003 38 273 0.0 2.0 0.00 0.04 0.00 93 1010.1
20260509091003 37 248 0.0 2.0 0.00 0.04 0.00 93 1009.7
20260509090003 37 266 0.0 2.0 0.00 0.04 0.00 93 1009.7
20260509085003 37 230 0.0 2.0 0.00 0.04 0.00 93 1009.7
20260509084003 37 221 0.0 1.0 0.00 0.04 0.00 93 1009.4
20260509083004 37 234 0.0 4.0 0.00 0.04 0.00 93 1009.7
20260509082003 38 245 0.0 2.0 0.00 0.04 0.00 93 1009.4
20260509081004 38 258 1.0 2.0 0.00 0.04 0.00 93 1009.4
20260509080003 38 253 1.0 2.0 0.00 0.04 0.00 93 1009.4
20260509075004 38 251 1.0 4.0 0.00 0.04 0.00 93 1009.4
20260509074003 38 249 1.0 6.0 0.00 0.04 0.00 93 1009.4
20260509073003 38 231 1.0 4.0 0.00 0.04 0.00 94 1009.0
20260509072004 38 239 1.0 3.0 0.00 0.04 0.00 94 1009.0
20260509071003 38 242 1.0 2.0 0.00 0.04 0.00 94 1008.7
20260509070004 38 252 1.0 2.0 0.00 0.04 0.00 94 1008.7
20260509065003 38 273 0.0 4.0 0.00 0.04 0.00 94 1008.4
20260509064003 38 244 1.0 3.0 0.00 0.04 0.00 95 1008.7
20260509063004 38 252 0.0 4.0 0.00 0.04 0.00 95 1008.4
20260509062003 38 259 0.0 2.0 0.00 0.04 0.00 94 1008.4
20260509061003 38 245 0.0 3.0 0.00 0.04 0.00 94 1008.0
20260509060004 38 226 0.0 2.0 0.00 0.04 0.00 94 1008.0
20260509055003 38 277 0.0 3.0 0.00 0.04 0.00 94 1008.0
20260509054003 39 267 0.0 2.0 0.00 0.04 0.00 93 1007.7
20260509053003 39 262 0.0 2.0 0.00 0.04 0.00 93 1007.7
20260509052003 40 271 1.0 2.0 0.00 0.04 0.00 91 1007.3
20260509051004 40 235 0.0 2.0 0.00 0.04 0.00 92 1007.3
20260509050003 40 271 0.0 1.0 0.00 0.04 0.00 91 1007.3
20260509045003 40 214 0.0 2.0 0.00 0.04 0.00 92 1007.3
20260509044003 40 207 0.0 2.0 0.00 0.04 0.00 92 1007.0
20260509043004 40 213 0.0 1.0 0.00 0.04 0.00 91 1007.0
20260509042004 41 213 0.0 3.0 0.00 0.04 0.00 91 1006.6
20260509041003 41 203 0.0 2.0 0.00 0.04 0.00 92 1006.6
20260509040004 41 212 0.0 1.0 0.00 0.04 0.00 93 1006.6
20260509035003 41 198 0.0 2.0 0.00 0.04 0.00 96 1006.6
20260509034003 40 205 0.0 1.0 0.00 0.04 0.00 98 1006.3
20260509033003 40 209 0.0 1.0 0.00 0.04 0.00 98 1006.3
20260509032003 39 0 0.0 0.0 0.00 0.04 0.00 98 1006.0
20260509031003 38 0 0.0 0.0 0.00 0.04 0.00 98 1006.0
20260509030004 38 0 0.0 0.0 0.00 0.04 0.00 97 1006.0
20260509025003 39 0 0.0 0.0 0.00 0.04 0.04 97 1006.0
20260509024003 39 0 0.0 0.0 0.00 0.04 0.04 97 1006.0
20260509023003 39 0 0.0 0.0 0.00 0.04 0.04 97 1006.0
20260509022003 40 0 0.0 0.0 0.00 0.04 0.04 97 1006.0
20260509021003 40 0 0.0 0.0 0.00 0.04 0.04 97 1006.0
20260509020003 40 221 0.0 1.0 0.00 0.04 0.04 97 1006.0
20260509015003 40 237 0.0 2.0 0.00 0.04 0.04 97 1006.0
20260509014003 40 235 0.0 1.0 0.00 0.04 0.04 97 1006.0